User: anonymous
Location: Arrakis Observatory
(44.1122°N, 95.7153°W)
Time: 12:35:26
(UTC-05:00)
Language:

SL-8 R/B - Orbit

View from above orbital plane
View from above orbital plane
View from above satellite
View from above satellite

Ground track
Ground track

The orbit data is extracted from the following two-line orbital elements,

1 32751U 08014B   14211.96004873  .00053537  00000-0  48322-3 0  9026
2 32751 098.1395 170.8989 0009839 018.5670 022.2065 15.67932542354589
Epoch (UTC): 30 July 2014 23:02:28
Eccentricity: 0.0009839
inclination: 98.1395°
perigee height: 358 km
apogee height: 371 km
right ascension of ascending node: 170.8989°
argument of perigee: 18.5670°
revolutions per day: 15.67932542
mean anomaly at epoch: 22.2065°
orbit number at epoch: 35458

The dashed part of the orbit path shows where the satellite is in the earth's shadow,  

DLR